| time (UTC) | temp F | wind direction | speed MPH | gust MPH | rain 1hr in | rain 24hr in | rain mn in | humidity % | barometer mb |
| 20260503183720 | 76 | 271 | 4.0 | 5.0 | 0.00 | 0.00 | 0.00 | 55 | 1016.0 |
| 20260503183217 | 75 | 328 | 3.0 | 5.0 | 0.00 | 0.00 | 0.00 | 56 | 1015.9 |
| 20260503182716 | 75 | 50 | 5.0 | 9.0 | 0.00 | 0.00 | 0.00 | 55 | 1015.9 |
| 20260503182214 | 75 | 280 | 3.0 | 3.0 | 0.00 | 0.00 | 0.00 | 57 | 1015.9 |
| 20260503181709 | 75 | 354 | 4.0 | 5.0 | 0.00 | 0.00 | 0.00 | 56 | 1016.1 |
| 20260503181207 | 75 | 302 | 0.0 | 0.0 | 0.00 | 0.00 | 0.00 | 58 | 1016.1 |
| 20260503180703 | 74 | 332 | 2.0 | 3.0 | 0.00 | 0.00 | 0.00 | 58 | 1016.2 |
| 20260503180202 | 74 | 317 | 3.0 | 3.0 | 0.00 | 0.00 | 0.00 | 57 | 1016.1 |
| 20260503175658 | 74 | 250 | 3.0 | 3.0 | 0.00 | 0.00 | 0.00 | 57 | 1016.0 |
| 20260503175156 | 73 | 60 | 5.0 | 5.0 | 0.00 | 0.00 | 0.00 | 60 | 1016.2 |
| 20260503174651 | 74 | 291 | 3.0 | 5.0 | 0.00 | 0.00 | 0.00 | 56 | 1016.3 |
| 20260503174149 | 73 | 311 | 1.0 | 2.0 | 0.00 | 0.00 | 0.00 | 60 | 1016.2 |
| 20260503173644 | 73 | 337 | 4.0 | 5.0 | 0.00 | 0.00 | 0.00 | 58 | 1016.3 |
| 20260503173141 | 72 | 327 | 2.0 | 2.0 | 0.00 | 0.00 | 0.00 | 58 | 1016.4 |
| 20260503172638 | 73 | 0 | 5.0 | 5.0 | 0.00 | 0.00 | 0.00 | 59 | 1016.5 |
| 20260503172135 | 72 | 274 | 4.0 | 5.0 | 0.00 | 0.00 | 0.00 | 60 | 1016.3 |
| 20260503171631 | 72 | 350 | 3.0 | 3.0 | 0.00 | 0.00 | 0.00 | 58 | 1016.2 |
| 20260503171129 | 72 | 353 | 4.0 | 5.0 | 0.00 | 0.00 | 0.00 | 61 | 1016.3 |
| 20260503170626 | 72 | 266 | 4.0 | 5.0 | 0.00 | 0.00 | 0.00 | 61 | 1016.2 |
| 20260503170122 | 72 | 290 | 3.0 | 3.0 | 0.00 | 0.00 | 0.00 | 60 | 1016.3 |
| 20260503150514 | 66 | 317 | 0.0 | 0.0 | 0.00 | 0.00 | 0.00 | 66 | 1016.6 |
| 20260503131401 | 53 | 325 | 0.0 | 0.0 | 0.00 | 0.00 | 0.00 | 86 | 1016.5 |
| 20260503130858 | 53 | 325 | 1.0 | 2.0 | 0.00 | 0.00 | 0.00 | 86 | 1016.5 |
| 20260503130356 | 53 | 302 | 0.0 | 0.0 | 0.00 | 0.00 | 0.00 | 84 | 1016.5 |
| 20260503110750 | 53 | 306 | 0.0 | 0.0 | 0.00 | 0.00 | 0.00 | 87 | 1016.5 |
| 20260503110247 | 53 | 303 | 0.0 | 0.0 | 0.00 | 0.00 | 0.00 | 89 | 1016.8 |
| 20260503100213 | 57 | 320 | 0.0 | 0.0 | 0.00 | 0.00 | 0.00 | 82 | 1016.9 |
| 20260503090137 | 58 | 301 | 0.0 | 2.0 | 0.00 | 0.00 | 0.00 | 83 | 1017.0 |
| 20260503081608 | 58 | 296 | 0.0 | 0.0 | 0.00 | 0.00 | 0.00 | 88 | 1017.1 |
| 20260503081105 | 58 | 275 | 0.0 | 0.0 | 0.00 | 0.00 | 0.00 | 88 | 1017.2 |
| 20260503080601 | 57 | 296 | 0.0 | 0.0 | 0.00 | 0.00 | 0.00 | 90 | 1017.1 |
| 20260503072539 | 59 | 287 | 1.0 | 2.0 | 0.00 | 0.00 | 0.00 | 88 | 1017.3 |
| 20260503072036 | 58 | 284 | 0.0 | 2.0 | 0.00 | 0.00 | 0.00 | 89 | 1017.2 |
| 20260503071533 | 58 | 292 | 0.0 | 0.0 | 0.00 | 0.00 | 0.00 | 90 | 1017.2 |
| 20260503071030 | 58 | 309 | 0.0 | 2.0 | 0.00 | 0.00 | 0.00 | 90 | 1017.1 |
| 20260503070526 | 58 | 297 | 0.0 | 0.0 | 0.00 | 0.00 | 0.00 | 90 | 1017.0 |
| 20260503054945 | 61 | 291 | 0.0 | 2.0 | 0.00 | 0.00 | 0.00 | 87 | 1016.7 |
| 20260503054441 | 60 | 262 | 0.0 | 2.0 | 0.00 | 0.00 | 0.00 | 87 | 1016.7 |
| 20260503053939 | 60 | 307 | 1.0 | 2.0 | 0.00 | 0.00 | 0.00 | 87 | 1016.8 |
| 20260503053437 | 60 | 296 | 0.0 | 0.0 | 0.00 | 0.00 | 0.00 | 87 | 1016.9 |
| 20260503052933 | 60 | 283 | 0.0 | 2.0 | 0.00 | 0.00 | 0.00 | 86 | 1016.9 |
| 20260503052431 | 60 | 288 | 1.0 | 2.0 | 0.00 | 0.00 | 0.00 | 86 | 1016.9 |
| 20260503051927 | 60 | 292 | 0.0 | 0.0 | 0.00 | 0.00 | 0.00 | 86 | 1016.7 |
| 20260503051423 | 60 | 291 | 0.0 | 2.0 | 0.00 | 0.00 | 0.00 | 86 | 1016.8 |
| 20260503050920 | 60 | 294 | 0.0 | 0.0 | 0.00 | 0.00 | 0.00 | 86 | 1016.8 |
| 20260503050416 | 60 | 294 | 0.0 | 0.0 | 0.00 | 0.00 | 0.00 | 86 | 1016.8 |
| 20260503045914 | 60 | 297 | 0.0 | 0.0 | 0.00 | 0.00 | 0.00 | 86 | 1016.8 |
| 20260503045411 | 60 | 297 | 0.0 | 0.0 | 0.00 | 0.00 | 0.00 | 85 | 1016.7 |
| 20260503044908 | 60 | 297 | 0.0 | 0.0 | 0.00 | 0.00 | 0.00 | 84 | 1016.7 |
| 20260503044405 | 61 | 297 | 0.0 | 0.0 | 0.00 | 0.00 | 0.00 | 84 | 1016.5 |
| 20260503043902 | 61 | 297 | 0.0 | 0.0 | 0.00 | 0.00 | 0.00 | 84 | 1016.5 |
| 20260503043358 | 62 | 297 | 0.0 | 0.0 | 0.00 | 0.00 | 0.00 | 83 | 1016.6 |
| 20260503042855 | 62 | 296 | 0.0 | 0.0 | 0.00 | 0.00 | 0.00 | 81 | 1016.4 |
| 20260503042351 | 62 | 298 | 0.0 | 0.0 | 0.00 | 0.00 | 0.00 | 81 | 1016.4 |
| 20260503041847 | 62 | 298 | 0.0 | 0.0 | 0.00 | 0.00 | 0.00 | 81 | 1016.3 |
| 20260503041345 | 63 | 298 | 0.0 | 0.0 | 0.00 | 0.00 | 0.00 | 81 | 1016.4 |
| 20260503040842 | 63 | 301 | 0.0 | 2.0 | 0.00 | 0.00 | 0.00 | 81 | 1016.3 |
| 20260503040340 | 64 | 300 | 0.0 | 2.0 | 0.00 | 0.00 | 0.00 | 80 | 1016.4 |
| 20260503035837 | 64 | 302 | 0.0 | 0.0 | 0.00 | 0.00 | 0.00 | 80 | 1016.0 |
| 20260503035334 | 64 | 302 | 0.0 | 0.0 | 0.00 | 0.00 | 0.00 | 79 | 1015.8 |
| 20260503034831 | 65 | 302 | 0.0 | 0.0 | 0.00 | 0.00 | 0.00 | 79 | 1015.9 |
| 20260503034328 | 65 | 302 | 0.0 | 0.0 | 0.00 | 0.00 | 0.00 | 77 | 1015.9 |
| 20260503033826 | 66 | 302 | 0.0 | 0.0 | 0.00 | 0.00 | 0.00 | 76 | 1015.7 |
| 20260503033323 | 66 | 302 | 0.0 | 0.0 | 0.00 | 0.00 | 0.00 | 75 | 1015.8 |
| 20260503032821 | 66 | 310 | 0.0 | 0.0 | 0.00 | 0.00 | 0.00 | 75 | 1015.6 |
| 20260503032320 | 68 | 311 | 0.0 | 0.0 | 0.00 | 0.00 | 0.00 | 72 | 1015.6 |
| 20260503031816 | 68 | 311 | 0.0 | 0.0 | 0.00 | 0.00 | 0.00 | 70 | 1015.5 |
| 20260503031314 | 68 | 311 | 0.0 | 0.0 | 0.00 | 0.00 | 0.00 | 70 | 1015.6 |
| 20260503030810 | 68 | 310 | 0.0 | 0.0 | 0.00 | 0.00 | 0.00 | 69 | 1015.3 |
| 20260503030307 | 69 | 315 | 1.0 | 2.0 | 0.00 | 0.00 | 0.00 | 69 | 1015.4 |
| 20260503025803 | 69 | 312 | 0.0 | 0.0 | 0.00 | 0.00 | 0.00 | 67 | 1015.4 |
| 20260503025301 | 69 | 313 | 0.0 | 0.0 | 0.00 | 0.00 | 0.00 | 67 | 1015.4 |
| 20260503024758 | 70 | 313 | 0.0 | 0.0 | 0.00 | 0.00 | 0.00 | 67 | 1015.5 |
| 20260503024255 | 71 | 307 | 0.0 | 0.0 | 0.00 | 0.00 | 0.00 | 65 | 1015.2 |
| 20260503023752 | 73 | 302 | 0.0 | 0.0 | 0.00 | 0.00 | 0.00 | 63 | 1015.1 |
| 20260503023249 | 73 | 326 | 0.0 | 0.0 | 0.00 | 0.00 | 0.00 | 57 | 1015.2 |
| 20260503022745 | 73 | 317 | 1.0 | 2.0 | 0.00 | 0.00 | 0.00 | 56 | 1015.3 |
| 20260503022240 | 74 | 329 | 2.0 | 2.0 | 0.00 | 0.00 | 0.00 | 56 | 1015.3 |
| 20260503021737 | 74 | 330 | 2.0 | 2.0 | 0.00 | 0.00 | 0.00 | 55 | 1015.2 |
| 20260503021233 | 75 | 340 | 4.0 | 5.0 | 0.00 | 0.00 | 0.00 | 55 | 1015.1 |
| 20260503020731 | 75 | 24 | 3.0 | 3.0 | 0.00 | 0.00 | 0.00 | 55 | 1015.2 |
| 20260503020228 | 75 | 327 | 2.0 | 3.0 | 0.00 | 0.00 | 0.00 | 56 | 1015.2 |
| 20260503015725 | 75 | 340 | 2.0 | 3.0 | 0.00 | 0.00 | 0.00 | 57 | 1015.1 |
| 20260503015222 | 75 | 335 | 3.0 | 3.0 | 0.00 | 0.00 | 0.00 | 56 | 1015.2 |
| 20260503014717 | 75 | 336 | 4.0 | 5.0 | 0.00 | 0.00 | 0.00 | 56 | 1015.2 |
| 20260503014216 | 75 | 338 | 2.0 | 3.0 | 0.00 | 0.00 | 0.00 | 56 | 1015.1 |
| 20260503013712 | 75 | 343 | 4.0 | 5.0 | 0.00 | 0.00 | 0.00 | 57 | 1015.1 |
| 20260503013210 | 76 | 330 | 4.0 | 5.0 | 0.00 | 0.00 | 0.00 | 57 | 1015.1 |
| 20260503012708 | 76 | 326 | 4.0 | 5.0 | 0.00 | 0.00 | 0.00 | 57 | 1015.0 |
| 20260503012204 | 75 | 22 | 4.0 | 5.0 | 0.00 | 0.00 | 0.00 | 56 | 1015.2 |
| 20260503011700 | 75 | 333 | 5.0 | 7.0 | 0.00 | 0.00 | 0.00 | 57 | 1015.2 |
| 20260503011158 | 76 | 331 | 4.0 | 5.0 | 0.00 | 0.00 | 0.00 | 56 | 1015.3 |
| 20260503010653 | 77 | 336 | 3.0 | 3.0 | 0.00 | 0.00 | 0.00 | 55 | 1015.4 |
| 20260503010151 | 78 | 336 | 6.0 | 9.0 | 0.00 | 0.00 | 0.00 | 56 | 1015.3 |
| 20260503005648 | 77 | 297 | 2.0 | 2.0 | 0.00 | 0.00 | 0.00 | 54 | 1015.2 |
| 20260503005145 | 77 | 339 | 3.0 | 3.0 | 0.00 | 0.00 | 0.00 | 55 | 1015.4 |
| 20260503004641 | 77 | 7 | 3.0 | 3.0 | 0.00 | 0.00 | 0.00 | 55 | 1015.2 |
| 20260503004140 | 78 | 333 | 2.0 | 3.0 | 0.00 | 0.00 | 0.00 | 54 | 1015.3 |
| 20260503003636 | 76 | 319 | 2.0 | 3.0 | 0.00 | 0.00 | 0.00 | 57 | 1015.4 |
| 20260503003133 | 76 | 321 | 3.0 | 3.0 | 0.00 | 0.00 | 0.00 | 57 | 1015.5 |
| 20260503002630 | 77 | 156 | 5.0 | 5.0 | 0.00 | 0.00 | 0.00 | 57 | 1015.3 |
| 20260503002127 | 77 | 328 | 2.0 | 3.0 | 0.00 | 0.00 | 0.00 | 55 | 1015.4 |
| 20260503001623 | 77 | 351 | 2.0 | 3.0 | 0.00 | 0.00 | 0.00 | 56 | 1015.5 |
| 20260503001120 | 77 | 69 | 4.0 | 5.0 | 0.00 | 0.00 | 0.00 | 55 | 1015.6 |
| 20260503000618 | 77 | 325 | 0.0 | 2.0 | 0.00 | 0.00 | 0.00 | 55 | 1015.4 |
| 20260503000115 | 77 | 339 | 5.0 | 7.0 | 0.00 | 0.00 | 0.00 | 54 | 1015.6 |
| 20260502235611 | 77 | 0 | 5.0 | 7.0 | 0.00 | 0.00 | 0.00 | 56 | 1015.5 |
| 20260502235109 | 76 | 341 | 6.0 | 9.0 | 0.00 | 0.00 | 0.00 | 59 | 1015.7 |
| 20260502234605 | 77 | 314 | 1.0 | 2.0 | 0.00 | 0.00 | 0.00 | 60 | 1015.7 |
| 20260502234103 | 76 | 313 | 2.0 | 2.0 | 0.00 | 0.00 | 0.00 | 60 | 1015.7 |
| 20260502233603 | 76 | 294 | 0.0 | 2.0 | 0.00 | 0.00 | 0.00 | 60 | 1015.9 |
| 20260502233100 | 75 | 314 | 1.0 | 2.0 | 0.00 | 0.00 | 0.00 | 62 | 1015.7 |
| 20260502232556 | 75 | 294 | 2.0 | 3.0 | 0.00 | 0.00 | 0.00 | 63 | 1015.8 |
| 20260502232054 | 74 | 323 | 2.0 | 3.0 | 0.00 | 0.00 | 0.00 | 63 | 1016.2 |
| 20260502231550 | 74 | 300 | 3.0 | 7.0 | 0.00 | 0.00 | 0.00 | 64 | 1016.1 |
| 20260502231048 | 73 | 347 | 2.0 | 3.0 | 0.00 | 0.00 | 0.00 | 62 | 1016.1 |
| 20260502230546 | 73 | 340 | 4.0 | 5.0 | 0.00 | 0.00 | 0.00 | 62 | 1016.1 |
| 20260502230045 | 73 | 318 | 0.0 | 2.0 | 0.00 | 0.00 | 0.00 | 63 | 1016.2 |
| 20260502225540 | 73 | 325 | 4.0 | 5.0 | 0.00 | 0.00 | 0.00 | 61 | 1016.3 |
| 20260502225038 | 73 | 355 | 4.0 | 5.0 | 0.00 | 0.00 | 0.00 | 61 | 1016.3 |
| 20260502224533 | 74 | 335 | 3.0 | 3.0 | 0.00 | 0.00 | 0.00 | 60 | 1016.5 |
| 20260502224030 | 75 | 8 | 3.0 | 3.0 | 0.00 | 0.00 | 0.00 | 60 | 1016.3 |
| 20260502223528 | 75 | 354 | 2.0 | 3.0 | 0.00 | 0.00 | 0.00 | 59 | 1016.7 |
| 20260502223026 | 76 | 325 | 6.0 | 7.0 | 0.00 | 0.00 | 0.00 | 58 | 1016.6 |
| 20260502222523 | 75 | 339 | 4.0 | 7.0 | 0.00 | 0.00 | 0.00 | 63 | 1016.7 |
| 20260502222020 | 75 | 328 | 2.0 | 3.0 | 0.00 | 0.00 | 0.00 | 61 | 1016.9 |
| 20260502221515 | 75 | 0 | 3.0 | 7.0 | 0.00 | 0.00 | 0.00 | 60 | 1016.8 |
| 20260502221013 | 74 | 359 | 6.0 | 7.0 | 0.00 | 0.00 | 0.00 | 62 | 1016.8 |
| 20260502220508 | 74 | 315 | 2.0 | 3.0 | 0.00 | 0.00 | 0.00 | 62 | 1016.9 |
| 20260502220005 | 74 | 343 | 2.0 | 2.0 | 0.00 | 0.00 | 0.00 | 64 | 1017.0 |
| 20260502215503 | 74 | 351 | 5.0 | 7.0 | 0.00 | 0.00 | 0.00 | 59 | 1016.9 |
| 20260502214959 | 73 | 165 | 5.0 | 5.0 | 0.00 | 0.00 | 0.00 | 61 | 1017.1 |
| 20260502214456 | 73 | 346 | 2.0 | 3.0 | 0.00 | 0.00 | 0.00 | 61 | 1017.1 |
| 20260502213953 | 73 | 63 | 6.0 | 9.0 | 0.00 | 0.00 | 0.00 | 64 | 1017.0 |
| 20260502213450 | 73 | 318 | 3.0 | 3.0 | 0.00 | 0.00 | 0.00 | 61 | 1017.2 |
| 20260502212948 | 73 | 325 | 4.0 | 5.0 | 0.00 | 0.00 | 0.00 | 62 | 1017.1 |
| 20260502212447 | 73 | 344 | 5.0 | 5.0 | 0.00 | 0.00 | 0.00 | 63 | 1017.2 |
| 20260502211944 | 74 | 328 | 2.0 | 3.0 | 0.00 | 0.00 | 0.00 | 61 | 1017.3 |
| 20260502211439 | 74 | 337 | 3.0 | 5.0 | 0.00 | 0.00 | 0.00 | 62 | 1017.3 |
| 20260502210937 | 72 | 307 | 0.0 | 0.0 | 0.00 | 0.00 | 0.00 | 65 | 1017.3 |
| 20260502210434 | 72 | 245 | 6.0 | 7.0 | 0.00 | 0.00 | 0.00 | 62 | 1017.4 |
| 20260502205931 | 73 | 311 | 5.0 | 7.0 | 0.00 | 0.00 | 0.00 | 61 | 1017.3 |
| 20260502205427 | 73 | 317 | 5.0 | 9.0 | 0.00 | 0.00 | 0.00 | 67 | 1017.2 |
| 20260502204924 | 73 | 312 | 2.0 | 2.0 | 0.00 | 0.00 | 0.00 | 64 | 1017.6 |
| 20260502204421 | 71 | 287 | 2.0 | 3.0 | 0.00 | 0.00 | 0.00 | 69 | 1017.4 |
| 20260502203919 | 70 | 325 | 5.0 | 7.0 | 0.00 | 0.00 | 0.00 | 67 | 1017.5 |
| 20260502203416 | 70 | 342 | 6.0 | 7.0 | 0.00 | 0.00 | 0.00 | 66 | 1017.6 |
| 20260502202912 | 70 | 354 | 4.0 | 5.0 | 0.00 | 0.00 | 0.00 | 67 | 1017.6 |
| 20260502202409 | 70 | 332 | 3.0 | 5.0 | 0.00 | 0.00 | 0.00 | 67 | 1017.6 |
| 20260502201907 | 70 | 322 | 1.0 | 2.0 | 0.00 | 0.00 | 0.00 | 70 | 1017.6 |
| 20260502201403 | 69 | 316 | 2.0 | 3.0 | 0.00 | 0.00 | 0.00 | 69 | 1017.8 |
| 20260502200900 | 71 | 295 | 2.0 | 2.0 | 0.00 | 0.00 | 0.00 | 67 | 1017.8 |
| 20260502200355 | 70 | 299 | 2.0 | 2.0 | 0.00 | 0.00 | 0.00 | 70 | 1018.1 |
| 20260502195854 | 71 | 327 | 0.0 | 2.0 | 0.00 | 0.00 | 0.00 | 67 | 1018.0 |
| 20260502195350 | 71 | 1 | 5.0 | 7.0 | 0.00 | 0.00 | 0.00 | 64 | 1017.9 |
| 20260502194847 | 71 | 315 | 0.0 | 0.0 | 0.00 | 0.00 | 0.00 | 66 | 1018.1 |
| 20260502194343 | 71 | 303 | 1.0 | 2.0 | 0.00 | 0.00 | 0.00 | 66 | 1018.2 |
| 20260502193839 | 70 | 334 | 1.0 | 2.0 | 0.00 | 0.00 | 0.00 | 66 | 1018.2 |
| 20260502193337 | 69 | 307 | 1.0 | 2.0 | 0.00 | 0.00 | 0.00 | 68 | 1018.3 |
| 20260502192832 | 68 | 317 | 2.0 | 2.0 | 0.00 | 0.00 | 0.00 | 71 | 1018.4 |
| 20260502192329 | 67 | 340 | 4.0 | 5.0 | 0.00 | 0.00 | 0.00 | 69 | 1018.2 |
| 20260502191827 | 69 | 307 | 0.0 | 2.0 | 0.00 | 0.00 | 0.00 | 69 | 1018.6 |
| 20260502191325 | 68 | 328 | 1.0 | 2.0 | 0.00 | 0.00 | 0.00 | 69 | 1018.6 |
| 20260502190822 | 69 | 279 | 0.0 | 2.0 | 0.00 | 0.00 | 0.00 | 68 | 1018.6 |
| 20260502190319 | 68 | 311 | 2.0 | 3.0 | 0.00 | 0.00 | 0.00 | 71 | 1018.8 |
| 20260502185814 | 66 | 333 | 1.0 | 2.0 | 0.00 | 0.00 | 0.00 | 71 | 1018.7 |
| 20260502185310 | 66 | 307 | 3.0 | 3.0 | 0.00 | 0.00 | 0.00 | 73 | 1018.7 |
| 20260502184807 | 66 | 285 | 0.0 | 0.0 | 0.00 | 0.00 | 0.00 | 74 | 1019.0 |
| 20260502184303 | 65 | 305 | 2.0 | 3.0 | 0.00 | 0.00 | 0.00 | 74 | 1019.0 |